Radiation Dose at Monitoring Post of Fukushima Daini Nuclear Power Station
Date,Time,MP-1(microSv/h),MP-2(microSv/h),MP-3(microSv/h),MP-4(microSv/h),MP-5(microSv/h),MP-6(microSv/h),MP-7(microSv/h),Wind Direction,Wind Velocity(m/s),Rain
2019/07/04,00:00,0.187,0.170,0.285,0.267,0.269,0.142,0.090,-,CALM,Yes
2019/07/04,00:10,0.188,0.171,0.281,0.268,0.267,0.141,0.090,northwest,3.8,Yes
2019/07/04,00:20,0.189,0.171,0.283,0.266,0.270,0.143,0.090,northwest,4.4,Yes
2019/07/04,00:30,0.187,0.171,0.283,0.269,0.268,0.142,0.091,northwest,3.6,Yes
2019/07/04,00:40,0.190,0.170,0.284,0.268,0.269,0.142,0.091,north-northwest,4.0,Yes
2019/07/04,00:50,0.188,0.171,0.284,0.269,0.268,0.143,0.091,north-northwest,4.6,Yes
2019/07/04,01:00,0.189,0.171,0.283,0.267,0.268,0.142,0.092,north-northwest,5.1,Yes
2019/07/04,01:10,0.190,0.172,0.284,0.268,0.270,0.146,0.093,north-northwest,5.1,Yes
2019/07/04,01:20,0.189,0.172,0.282,0.269,0.268,0.145,0.094,north-northwest,5.1,Yes
2019/07/04,01:30,0.193,0.174,0.286,0.267,0.270,0.146,0.094,north-northwest,4.5,Yes
2019/07/04,01:40,0.190,0.173,0.283,0.268,0.270,0.146,0.096,north-northwest,6.2,Yes
2019/07/04,01:50,0.194,0.175,0.283,0.264,0.271,0.147,0.098,northwest,3.6,Yes
2019/07/04,02:00,0.194,0.178,0.281,0.267,0.272,0.151,0.101,north-northwest,7.1,Yes
2019/07/04,02:10,0.193,0.178,0.283,0.267,0.274,0.150,0.102,northwest,6.2,Yes
2019/07/04,02:20,0.195,0.180,0.285,0.269,0.277,0.152,0.102,northwest,6.7,Yes
2019/07/04,02:30,0.194,0.180,0.284,0.268,0.274,0.152,0.103,northwest,7.3,Yes
2019/07/04,02:40,0.194,0.179,0.284,0.267,0.277,0.151,0.101,northwest,6.3,Yes
2019/07/04,02:50,0.190,0.178,0.282,0.266,0.271,0.149,0.101,north-northwest,7.8,Yes
2019/07/04,03:00,0.190,0.178,0.283,0.262,0.274,0.148,0.100,north-northwest,7.5,Yes
2019/07/04,03:10,0.189,0.177,0.281,0.265,0.272,0.148,0.099,north-northwest,7.4,Yes
2019/07/04,03:20,0.189,0.176,0.282,0.263,0.273,0.146,0.098,north-northwest,7.7,Yes
2019/07/04,03:30,0.187,0.174,0.279,0.264,0.270,0.145,0.097,north-northwest,7.0,Yes
2019/07/04,03:40,0.189,0.175,0.280,0.261,0.269,0.145,0.096,northwest,6.2,Yes
2019/07/04,03:50,0.186,0.174,0.276,0.262,0.270,0.143,0.097,northwest,5.7,Yes
2019/07/04,04:00,0.187,0.173,0.279,0.259,0.268,0.145,0.096,north-northwest,6.8,Yes
2019/07/04,04:10,0.187,0.173,0.277,0.261,0.271,0.143,0.096,north-northwest,7.1,Yes
2019/07/04,04:20,0.187,0.174,0.278,0.260,0.267,0.144,0.095,north-northwest,7.0,Yes
2019/07/04,04:30,0.187,0.172,0.276,0.261,0.271,0.142,0.095,north-northwest,6.9,Yes
2019/07/04,04:40,0.184,0.173,0.276,0.260,0.269,0.143,0.095,northwest,7.0,Yes
2019/07/04,04:50,0.185,0.172,0.278,0.260,0.270,0.143,0.096,northwest,7.3,Yes
2019/07/04,05:00,0.184,0.172,0.274,0.260,0.266,0.143,0.096,northwest,6.7,Yes
2019/07/04,05:10,0.184,0.171,0.275,0.257,0.267,0.142,0.095,northwest,7.6,Yes
2019/07/04,05:20,0.182,0.173,0.274,0.258,0.267,0.142,0.095,northwest,8.4,Yes
2019/07/04,05:30,0.183,0.172,0.275,0.255,0.265,0.143,0.095,north-northwest,8.1,Yes
2019/07/04,05:40,0.181,0.172,0.273,0.257,0.268,0.142,0.096,northwest,7.7,Yes
2019/07/04,05:50,0.184,0.172,0.275,0.257,0.266,0.143,0.095,northwest,8.4,Yes
2019/07/04,06:00,0.182,0.172,0.273,0.258,0.268,0.143,0.094,northwest,9.0,Yes
2019/07/04,06:10,0.183,0.172,0.277,0.257,0.266,0.141,0.095,north-northwest,8.4,Yes
2019/07/04,06:20,0.185,0.173,0.274,0.258,0.269,0.143,0.095,northwest,8.2,Yes
2019/07/04,06:30,0.183,0.173,0.276,0.259,0.266,0.143,0.096,northwest,8.4,Yes
2019/07/04,06:40,0.184,0.172,0.275,0.257,0.268,0.143,0.095,north-northwest,5.9,Yes
2019/07/04,06:50,0.182,0.171,0.275,0.260,0.267,0.142,0.096,west-northwest,3.9,Yes
2019/07/04,07:00,0.184,0.173,0.272,0.256,0.266,0.144,0.097,northwest,5.2,Yes
2019/07/04,07:10,0.182,0.173,0.275,0.259,0.270,0.145,0.098,northwest,5.1,Yes
2019/07/04,07:20,0.184,0.173,0.274,0.259,0.267,0.144,0.097,northwest,7.6,Yes
2019/07/04,07:30,0.184,0.173,0.274,0.258,0.269,0.144,0.097,northwest,6.8,Yes
2019/07/04,07:40,0.184,0.172,0.275,0.259,0.269,0.143,0.097,northwest,6.8,Yes
2019/07/04,07:50,0.182,0.172,0.270,0.255,0.265,0.142,0.097,northwest,8.1,Yes
2019/07/04,08:00,0.177,0.172,0.270,0.254,0.268,0.141,0.096,northwest,6.3,Yes
2019/07/04,08:10,0.175,0.172,0.268,0.254,0.265,0.141,0.096,northwest,7.1,Yes
2019/07/04,08:20,0.170,0.171,0.267,0.253,0.265,0.142,0.096,north-northwest,10.7,Yes
2019/07/04,08:30,0.167,0.171,0.266,0.252,0.263,0.141,0.096,northwest,7.9,Yes
2019/07/04,08:40,0.166,0.170,0.266,0.252,0.265,0.140,0.096,north-northwest,4.3,Yes
2019/07/04,08:50,0.166,0.171,0.266,0.252,0.264,0.140,0.096,northwest,4.9,Yes
2019/07/04,09:00,0.166,0.171,0.267,0.254,0.265,0.139,0.096,northwest,5.2,Yes
2019/07/04,09:10,0.167,0.170,0.269,0.255,0.266,0.140,0.096,northwest,7.6,Yes
2019/07/04,09:20,0.168,0.170,0.267,0.254,0.263,0.139,0.096,north-northwest,7.7,Yes
2019/07/04,09:30,0.166,0.169,0.269,0.256,0.266,0.138,0.095,north-northwest,7.9,Yes
2019/07/04,09:40,0.168,0.169,0.268,0.255,0.265,0.138,0.094,north-northwest,7.3,Yes
2019/07/04,09:50,0.168,0.167,0.269,0.254,0.262,0.138,0.093,north,6.7,Yes
2019/07/04,10:00,0.167,0.167,0.265,0.253,0.263,0.136,0.092,north-northwest,7.6,Yes
2019/07/04,10:10,0.166,0.168,0.265,0.251,0.261,0.137,0.093,-,CALM,Yes
2019/07/04,10:20,0.168,0.169,0.268,0.254,0.266,0.137,0.094,north-northwest,8.1,Yes
2019/07/04,10:30,0.171,0.170,0.269,0.253,0.266,0.140,0.095,north-northwest,8.1,Yes
2019/07/04,10:40,0.171,0.172,0.271,0.258,0.267,0.139,0.097,north,7.4,Yes
2019/07/04,10:50,0.173,0.170,0.269,0.257,0.266,0.140,0.096,north,8.1,Yes
2019/07/04,11:00,0.173,0.170,0.272,0.258,0.266,0.140,0.095,north,7.6,Yes
2019/07/04,11:10,0.175,0.171,0.270,0.258,0.267,0.139,0.094,north,6.1,Yes
2019/07/04,11:20,0.177,0.169,0.273,0.258,0.265,0.139,0.095,north,6.0,Yes
2019/07/04,11:30,0.177,0.170,0.270,0.258,0.266,0.137,0.093,north,4.6,No
2019/07/04,11:40,0.179,0.166,0.269,0.255,0.263,0.138,0.093,north-northwest,5.9,No
2019/07/04,11:50,0.178,0.167,0.271,0.258,0.264,0.137,0.091,north-northwest,4.5,No
2019/07/04,12:00,0.179,0.166,0.268,0.255,0.264,0.135,0.090,northwest,6.0,Yes
2019/07/04,12:10,0.179,0.165,0.271,0.256,0.261,0.136,0.090,northwest,5.4,Yes
2019/07/04,12:20,0.180,0.166,0.268,0.256,0.262,0.135,0.090,northwest,5.1,Yes
2019/07/04,12:30,0.180,0.164,0.271,0.254,0.263,0.136,0.089,northwest,5.0,Yes
2019/07/04,12:40,0.179,0.165,0.269,0.256,0.260,0.136,0.090,northwest,4.4,Yes
2019/07/04,12:50,0.181,0.165,0.271,0.256,0.263,0.135,0.089,north-northwest,5.7,Yes
2019/07/04,13:00,0.179,0.164,0.271,0.254,0.260,0.135,0.088,northwest,5.9,Yes
2019/07/04,13:10,0.179,0.164,0.268,0.257,0.262,0.136,0.088,north-northwest,4.0,No
2019/07/04,13:20,0.181,0.163,0.271,0.255,0.262,0.134,0.087,northwest,4.1,No
2019/07/04,13:30,0.179,0.162,0.269,0.252,0.259,0.134,0.087,northwest,4.0,Yes
2019/07/04,13:40,0.180,0.164,0.267,0.255,0.258,0.134,0.087,west-northwest,2.9,No
2019/07/04,13:50,0.180,0.163,0.270,0.254,0.260,0.134,0.085,northwest,2.6,No
2019/07/04,14:00,0.178,0.162,0.269,0.252,0.260,0.133,0.087,northwest,3.8,No
2019/07/04,14:10,0.180,0.164,0.269,0.255,0.258,0.133,0.087,north-northwest,2.4,No
2019/07/04,14:20,0.179,0.162,0.269,0.254,0.260,0.135,0.086,north,2.9,No
2019/07/04,14:30,0.178,0.161,0.268,0.251,0.262,0.133,0.084,north,3.8,No
2019/07/04,14:40,0.179,0.163,0.269,0.255,0.259,0.132,0.086,north-northwest,4.3,No
2019/07/04,14:50,0.180,0.163,0.271,0.255,0.257,0.133,0.086,north,3.0,No
2019/07/04,15:00,0.178,0.162,0.268,0.252,0.257,0.134,0.085,north,2.9,No
2019/07/04,15:10,0.178,0.161,0.266,0.254,0.260,0.133,0.085,north,3.7,No
2019/07/04,15:20,0.180,0.162,0.270,0.256,0.261,0.132,0.085,north,4.6,No
2019/07/04,15:30,0.180,0.163,0.271,0.255,0.259,0.133,0.086,north,5.5,No
2019/07/04,15:40,0.178,0.161,0.268,0.254,0.258,0.133,0.086,north,5.0,No
2019/07/04,15:50,0.180,0.161,0.269,0.257,0.261,0.134,0.084,north,5.3,No
2019/07/04,16:00,0.181,0.163,0.271,0.255,0.262,0.133,0.085,north,5.4,No
2019/07/04,16:10,0.180,0.163,0.269,0.254,0.260,0.134,0.085,north,5.2,No
2019/07/04,16:20,0.181,0.162,0.270,0.257,0.260,0.134,0.085,north,4.5,No
2019/07/04,16:30,0.181,0.163,0.271,0.256,0.264,0.134,0.085,north,3.5,No
2019/07/04,16:40,0.180,0.162,0.270,0.253,0.261,0.134,0.086,north,3.9,No
2019/07/04,16:50,0.181,0.162,0.269,0.256,0.258,0.135,0.085,north,4.2,No
2019/07/04,17:00,0.181,0.163,0.272,0.256,0.259,0.135,0.085,north-northeast,3.7,No
2019/07/04,17:10,0.179,0.163,0.270,0.255,0.263,0.134,0.086,north-northeast,4.0,No
2019/07/04,17:20,0.181,0.163,0.271,0.257,0.260,0.134,0.085,north,2.5,No
2019/07/04,17:30,0.181,0.162,0.274,0.258,0.258,0.135,0.086,north,3.0,No
2019/07/04,17:40,0.180,0.163,0.269,0.254,0.259,0.134,0.085,north,2.4,No
2019/07/04,17:50,0.182,0.163,0.271,0.258,0.263,0.134,0.086,north,2.5,No
2019/07/04,18:00,0.180,0.164,0.272,0.257,0.261,0.134,0.086,north,2.6,No
2019/07/04,18:10,0.179,0.162,0.270,0.257,0.258,0.134,0.086,north,3.0,No
2019/07/04,18:20,0.181,0.164,0.274,0.258,0.262,0.134,0.085,north,2.5,No
2019/07/04,18:30,0.181,0.163,0.271,0.255,0.261,0.135,0.086,north,3.0,No
2019/07/04,18:40,0.180,0.164,0.271,0.257,0.260,0.134,0.086,north,3.2,No
2019/07/04,18:50,0.181,0.163,0.273,0.256,0.263,0.135,0.085,north,3.7,No
2019/07/04,19:00,0.180,0.162,0.270,0.257,0.261,0.136,0.085,north,3.3,No
2019/07/04,19:10,0.182,0.164,0.273,0.259,0.260,0.134,0.084,north-northwest,3.5,No
2019/07/04,19:20,0.181,0.162,0.272,0.254,0.262,0.135,0.086,north-northwest,3.2,No
2019/07/04,19:30,0.181,0.165,0.272,0.258,0.261,0.133,0.085,north-northwest,3.3,No
2019/07/04,19:40,0.182,0.165,0.274,0.257,0.262,0.135,0.086,north,3.5,No
2019/07/04,19:50,0.181,0.163,0.271,0.256,0.260,0.136,0.085,north,3.1,No
2019/07/04,20:00,0.182,0.164,0.273,0.258,0.262,0.134,0.085,north,4.1,No
2019/07/04,20:10,0.182,0.163,0.271,0.256,0.263,0.135,0.086,north,2.1,No
2019/07/04,20:20,0.180,0.164,0.273,0.258,0.260,0.135,0.085,north,3.3,No
2019/07/04,20:30,0.183,0.163,0.273,0.257,0.262,0.135,0.086,north,2.3,No
2019/07/04,20:40,0.180,0.164,0.272,0.258,0.260,0.135,0.085,north,2.5,No
2019/07/04,20:50,0.182,0.163,0.273,0.257,0.261,0.136,0.085,northeast,2.9,No
2019/07/04,21:00,0.181,0.165,0.271,0.256,0.261,0.136,0.086,east-northeast,2.8,No
2019/07/04,21:10,0.180,0.163,0.274,0.258,0.262,0.134,0.085,east-northeast,3.0,No
2019/07/04,21:20,0.182,0.163,0.272,0.256,0.262,0.135,0.086,east-northeast,3.0,No
2019/07/04,21:30,0.180,0.164,0.273,0.258,0.259,0.135,0.086,northeast,2.3,No
2019/07/04,21:40,0.183,0.162,0.273,0.257,0.263,0.135,0.086,northeast,1.8,No
2019/07/04,21:50,0.182,0.164,0.271,0.258,0.260,0.136,0.086,northeast,1.2,No
2019/07/04,22:00,0.180,0.162,0.273,0.258,0.261,0.135,0.085,north-northeast,1.6,No
2019/07/04,22:10,0.182,0.164,0.271,0.256,0.262,0.135,0.086,northeast,1.7,No
2019/07/04,22:20,0.180,0.163,0.273,0.258,0.259,0.135,0.085,northeast,1.5,No
2019/07/04,22:30,0.181,0.163,0.274,0.257,0.263,0.135,0.086,east-northeast,1.0,No
2019/07/04,22:40,0.182,0.163,0.271,0.257,0.260,0.136,0.085,northeast,2.8,No
2019/07/04,22:50,0.180,0.163,0.273,0.259,0.261,0.134,0.085,north-northeast,3.2,No
2019/07/04,23:00,0.181,0.163,0.272,0.257,0.263,0.136,0.086,north-northwest,3.0,No
2019/07/04,23:10,0.181,0.163,0.272,0.259,0.261,0.135,0.086,north,2.3,No
2019/07/04,23:20,0.182,0.165,0.275,0.257,0.261,0.135,0.086,north,4.2,No
2019/07/04,23:30,0.182,0.163,0.272,0.257,0.261,0.135,0.086,north-northwest,4.4,No
2019/07/04,23:40,0.181,0.163,0.274,0.259,0.261,0.135,0.086,north-northwest,4.3,No
2019/07/04,23:50,0.182,0.164,0.271,0.257,0.262,0.134,0.086,north-northwest,4.2,No
